SCP
0 0 0 0 0 0 0 0 0 0 0 0 0 0 0 0 0 0 -0 -0 -0 -0 0 0 -0 -0 -0 -0 -0 -0 -0 0 0 0 0 0 0 0 0 0 -0 0 0 0 0 0 0 0 0
0 0 0 0 0 0 0 0 0 0 0 0 0 0 0 0 0 0 0 0 -0 -0 0 0 0 0 -0 -0 -0 -0 0 0 0 0 0 0 0 0 0 0 -0 0 0 0 0 0 0 0 0
0 0 0 0 0 0 0 0 0 0 0 0 0 0 0 0 0 0 0 -0 -0 -0 0 0 -0 0 -0 -0 -0 -0 0 0 0 0 0 0 0 0 0 -0 0 0 0 0 0 0 0 0 0
0 0 0 0 0 0 0 0 0 0 0 0 0 0 0 0 0 0 -0 -0 -0 -0 0 0 -0 -0 -0 0 0 0 0 0 0 0 0 0 0 0 0 -0 0 0 0 0 0 0 0 0 0
0 0 0 0 0 0 0 0 0 0 0 0 0 0 0 0 0 0 -0 -0 -0 0 0 -0 -0 -0 -0 -0 0 0 0 0 0 0 0 0 0 0 0 0 0 0 0 0 0 0 0 0 0
0 0 0 0 0 0 0 0 0 0 0 0 0 0 0 0 0 0 0 -0 -0 -0 -0 -0 -0 -0 -0 0 0 0 0 0 0 0 0 0 0 0 0 0 0 0 0 0 0 0 0 0 0
0 0 0 0 0 0 0 0 0 0 0 0 0 0 0 0 0 0 0 -0 -0 -0 -0 -0 0 0 0 0 0 0 0 0 0 0 0 0 0 0 0 0 0 0 0 0 0 0 0 0 0
0 0 0 0 0 0 0 0 0 0 0 0 0 0 0 0 0 0 0 -0 -0 0 -0 -0 0 0 0 0 0 0 0 0 0 0 0 0 0 0 0 0 0 0 0 0 0 0 0 0 0
0 0 0 0 0 0 0 0 0 0 0 0 0 0 0 0 0 0 0 -0 0 0 0 0 0 0 0 0 0 0 0 0 0 0 0 0 0 0 0 0 0 0 0 0 0 0 0 0 0
0 0 0 0 0 0 0 0 0 0 0 0 0 0 0 0 0 0 0 -0 0 0 0 0 0 0 0 0 0 0 0 0 0 0 0 0 0 0 0 0 0 0 0 0 0 0 0 0 0
0 0 0 0 0 0 0 0 0 0 0 0 0 0 0 0 0 0 0 0 0 0 0 0 0 0 0 0 0 0 0 0 0 0 0 0 0 0 0 0 0 0 0 0 0 0 0 0 0
0 0 0 0 0 0 0 0 0 0 0 0 0 0 0 0 0 0 0 0 0 0 0 0 0 0 0 0 0 0 0 0 0 0 0 0 0 0 0 0 0 0 0 0 0 0 0 0 0
0 0 0 0 0 0 0 0 0 0 0 0 0 0 0 0 0 0 0 0 0 0 0 0 0 0 0 0 0 0 0 0 0 0 0 0 0 0 0 0 0 0 0 0 0 0 0 0 0
0 0 0 0 0 0 0 0 0 0 0 0 0 0 0 0 0 0 0 0 0 0 0 0 0 0 0 0 0 0 0 0 0 0 0 0 0 0 0 0 0 0 0 0 0 0 0 0 0
0 0 0 0 0 0 0 0 0 0 0 0 0 0 0 0 0 0 0 0 0 0 0 0 0 0 0 0 0 0 0 0 0 0 0 0 0 0 0 0 0 0 0 0 0 0 0 0 0
0 0 0 0 0 0 0 0 0 0 0 0 0 0 0 0 0 0 0 0 0 0 0 0 0 0 0 0 0 0 0 0 0 0 0 0 0 0 0 0 0 0 0 0 0 0 0 0 0
0 0 0 0 0 0 0 0 0 0 0 0 0 0 0 0 0 0 0 0 0 0 0 0 0 0 0 0 0 0 0 0 0 0 0 0 0 0 0 0 0 0 0 0 0 0 0 0 0
0 0 0 0 0 0 0 0 0 0 0 0 0 0 0 0 0 0 0 0 0 0 0 0 0 0 0 0 0 0 0 0 0 0 0 0 0 0 0 0 0 0 0 0 0 0 0 0 0
0 0 0 0 0 0 0 0 0 0 0 0 0 0 0 0 0 0 0 0 0 0 0 0 0 0 0 0 0 0 0 0 0 0 0 0 0 0 0 0 0 0 0 0 0 0 0 0 0
0 0 0 0 0 0 0 0 0 0 0 0 0 0 0 0 0 0 0 0 0 0 0 0 0 0 0 0 0 0 0 0 0 0 0 0 0 0 0 0 0 0 0 0 0 0 0 0 0
0 0 0 0 0 0 0 0 0 0 0 0 0 0 0 0 0 0 0 0 0 0 0 0 0 0 0 0 0 0 0 0 0 0 0 0 0 0 0 0 0 0 0 0 0 0 0 0 0
0 0 0 0 0 0 0 0 0 0 0 0 0 0 0 0 0 0 0 0 0 0 0 0 0 0 0 0 0 0 0 0 0 0 0 0 0 0 0 0 0 0 0 0 0 0 0 0 0
0 0 0 0 0 0 0 0 0 0 0 0 0 0 0 0 0 0 0 0 0 0 0 0 0 0 0 0 0 0 0 0 0 0 0 0 0 0 0 0 0 0 0 0 0 0 0 0 0
0 0 0 0 0 0 0 0 0 0 0 0 0 0 0 0 0 0 0 0 0 0 0 0 0 0 0 0 0 0 0 0 0 0 0 0 0 0 0 0 0 0 0 0 0 0 0 0 0
0 0 0 0 0 0 0 0 0 0 0 0 0 0 0 0 0 0 0 0 0 0 0 0 0 0 0 0 0 0 0 0 0 0 0 0 0 0 0 0 0 0 0 0 0 0 0 0 0
0 0 0 0 0 0 0 0 0 0 0 0 0 0 0 0 0 0 0 0 0 0 0 0 0 0 0 0 0 0 0 0 0 0 0 0 0 0 0 0 0 0 0 0 0 0 0 0 0
0 0 0 0 0 0 0 0 0 0 0 0 0 0 0 0 0 0 0 0 0 0 0 0 0 0 0 0 0 0 0 0 0 0 0 0 0 0 0 0 0 0 0 0 0 0 0 0 0
0 0 0 0 0 0 0 0 0 0 0 0 0 0 0 0 0 0 0 0 0 0 0 0 0 0 0 0 0 0 0 0 0 0 0 0 0 0 0 0 0 0 0 0 0 0 0 0 0
0 0 0 0 0 0 0 0 0 0 0 0 0 0 0 0 0 0 0 0 0 0 0 0 0 0 0 0 0 0 0 0 0 0 0 0 0 0 0 0 0 0 0 0 0 0 0 0 0
0 0 0 0 0 0 0 0 0 0 0 0 0 0 0 0 0 0 0 0 0 0 0 0 0 0 0 0 0 0 0 0 0 0 0 0 0 0 0 0 0 0 0 0 0 0 0 0 0
Wind_Speed_500mb
13 4 17 6 7 9 3 6 4 1 3 8 11 7 15 9 3 7 32 20 17 16 21 24 18 11 12 7 6 7 8 9 11 14 16 19 22 26 29 31 32 33 35 38 41 44 47 49 51
24 4 14 4 8 5 8 5 5 2 7 7 9 8 10 6 8 19 26 15 16 15 21 25 20 16 13 10 8 9 8 10 13 17 19 23 26 28 31 33 35 37 39 41 44 46 49 52 52
38 11 8 6 5 7 6 7 3 0 3 3 7 13 7 6 13 12 13 14 20 20 18 25 20 18 15 13 12 6 7 10 15 19 23 26 29 30 33 35 38 41 42 43 45 46 47 48 46
16 8 3 5 4 7 6 5 4 2 5 6 15 10 10 8 12 6 18 19 18 20 26 24 23 17 16 15 15 7 8 11 15 20 24 27 29 30 33 37 40 43 43 42 40 37 36 34 32
17 8 4 2 6 8 8 4 3 3 3 7 5 6 7 9 8 15 20 19 14 22 25 25 21 19 15 10 6 6 7 9 16 21 24 28 32 35 38 42 43 44 42 36 30 29 29 29 31
9 7 4 6 6 7 10 2 2 4 3 5 11 9 6 13 17 23 21 19 15 15 21 24 22 19 12 4 2 5 7 11 18 23 28 32 35 39 42 43 44 41 36 29 29 27 28 28 27
7 2 6 6 4 6 5 6 5 4 4 8 10 8 10 16 19 22 23 18 14 11 5 14 19 17 6 3 3 7 9 14 20 25 29 33 39 41 42 42 40 36 32 29 30 27 31 31 27
7 2 6 1 1 3 11 5 5 7 4 7 5 8 9 20 22 23 22 17 16 14 11 4 13 13 6 2 5 9 10 15 21 26 30 34 39 40 40 38 36 33 29 28 30 28 30 34 33
13 7 3 2 4 9 14 8 7 6 7 10 10 7 10 26 23 23 22 18 17 13 10 6 4 6 4 3 7 8 10 16 22 28 32 35 38 38 36 35 34 28 25 28 30 31 31 32 33
9 7 2 4 2 6 12 6 9 4 10 15 18 18 25 22 19 16 15 12 9 6 6 1 2 1 2 2 6 8 13 18 24 29 33 37 38 37 35 32 28 24 24 27 25 29 33 34 37
7 8 5 14 18 18 12 11 16 8 11 19 6 22 23 20 18 16 13 11 6 7 5 1 1 1 1 4 7 10 15 20 25 30 33 36 38 36 31 26 22 22 21 20 24 29 35 42 43
6 5 5 8 17 22 11 11 19 30 18 13 14 25 21 19 16 16 17 15 12 11 7 3 2 5 4 7 8 12 16 22 27 31 35 36 36 32 26 24 22 22 19 20 25 31 38 40 44
4 5 7 20 22 30 26 38 20 40 23 20 20 23 21 12 7 8 14 17 17 15 11 6 1 2 4 9 11 13 17 22 27 32 35 36 32 27 25 23 22 18 18 20 25 30 36 41 41
11 6 19 17 35 23 10 17 8 23 17 25 24 28 22 12 6 1 7 16 17 17 18 13 7 3 6 10 13 14 17 22 27 31 34 33 28 24 23 24 19 19 19 23 24 32 39 45 47
13 9 10 22 29 11 2 14 11 20 12 26 32 29 26 22 14 10 5 9 15 18 21 18 11 4 8 12 13 14 17 21 25 29 29 27 24 24 24 24 21 19 20 20 21 24 31 41 46
12 10 9 11 15 7 4 3 15 16 12 26 29 32 30 32 27 19 14 10 12 19 25 20 13 4 6 10 12 12 14 19 24 26 25 22 22 26 27 24 18 20 18 21 26 31 32 38 43
7 7 11 9 2 1 5 6 10 16 18 25 28 31 32 35 33 32 27 25 27 26 22 20 12 4 5 8 9 10 14 18 21 22 20 20 22 27 27 27 25 25 21 22 29 33 37 42 39
10 10 10 7 2 16 10 8 11 19 21 21 24 28 32 36 38 34 30 29 27 25 22 15 9 1 6 7 8 10 13 17 20 21 19 19 21 25 25 26 27 28 27 25 29 32 33 41 45
13 3 18 10 7 10 6 7 6 11 19 19 18 24 27 34 29 28 25 23 21 17 12 7 2 3 4 4 5 7 12 17 18 19 19 20 22 24 22 23 27 30 31 34 39 38 37 44 48
9 17 12 8 10 8 10 3 4 8 8 10 12 16 19 20 21 22 18 17 12 10 8 6 4 3 1 2 4 8 13 17 20 21 18 19 23 29 25 26 28 30 33 34 36 42 46 42 52
8 12 9 9 4 6 13 7 11 3 12 12 11 14 16 19 16 16 15 16 11 10 11 9 8 6 6 7 8 8 9 10 12 21 21 21 24 26 27 29 31 31 33 36 37 38 41 43 43
7 18 16 19 1 7 4 7 7 11 11 11 10 12 14 15 16 14 11 11 13 14 13 10 9 6 6 6 4 8 14 22 24 22 19 20 21 22 23 24 27 29 31 34 38 36 37 36 38
11 8 16 20 22 4 4 3 3 10 12 13 17 15 14 14 11 12 14 12 8 8 8 9 8 6 8 12 16 17 22 20 17 14 13 14 16 20 21 22 24 25 28 30 34 35 35 36 36
14 9 16 8 7 6 13 12 9 13 12 14 21 22 18 15 11 8 9 6 1 4 6 7 6 6 10 15 18 20 20 20 18 18 16 17 19 21 22 24 27 28 28 30 32 33 32 33 33
9 10 3 3 2 9 3 8 13 10 8 21 32 31 22 17 12 9 7 5 6 5 6 6 6 7 12 12 14 16 18 17 19 19 20 19 22 23 25 27 28 31 32 31 30 32 33 32 34
10 12 9 11 7 8 4 12 8 5 16 30 38 32 23 18 15 11 9 9 8 7 7 7 7 8 10 11 13 14 15 15 16 16 18 20 20 22 24 26 28 28 30 30 32 32 31 33 32
10 9 7 5 3 3 9 4 2 9 11 24 31 31 28 24 19 16 13 12 12 11 11 11 12 14 14 17 19 19 22 23 26 27 27 28 28 27 25 23 24 25 26 29 30 33 34 36 38
14 17 7 3 6 8 8 8 10 24 27 23 27 33 33 28 24 21 18 16 16 18 19 20 23 25 28 28 29 30 32 32 31 29 31 32 32 32 31 32 33 35 35 35 34 35 35 37 39
7 9 7 11 9 9 4 11 3 9 32 33 35 42 41 35 29 26 24 23 23 25 27 30 31 31 30 29 29 27 28 27 26 27 29 31 30 32 33 34 35 37 39 41 41 42 43 45 45
4 14 15 9 9 8 4 11 7 12 35 44 42 46 41 36 33 30 29 29 31 31 31 30 29 27 28 28 25 26 25 25 24 26 28 29 31 33 35 36 38 40 42 44 47 49 50 52 53
Wind_Direction_500mb
215 242 335 2 55 64 272 254 283 206 52 14 99 136 125 66 81 166 147 129 139 169 169 170 158 154 134 157 191 253 296 331 329 329 329 326 322 320 318 316 312 309 307 305 302 298 295 293 292
187 139 339 2 88 71 269 257 222 219 122 107 63 86 60 75 54 125 147 148 137 163 168 155 152 161 165 185 217 257 294 328 333 331 329 328 325 324 323 321 318 315 311 307 302 298 298 298 297
179 123 336 85 104 168 209 243 199 234 69 187 101 69 75 69 95 116 141 151 145 158 159 147 159 177 177 203 231 5 343 336 334 330 328 328 326 327 325 321 319 315 311 308 306 306 304 301 301
130 92 38 79 214 251 212 303 220 89 98 86 113 57 78 86 122 95 138 136 147 155 149 155 177 181 194 213 259 337 338 339 331 327 328 327 325 326 323 322 321 319 318 317 316 313 315 316 323
132 97 307 51 277 271 266 273 225 87 63 80 104 138 73 68 112 125 135 134 139 155 154 167 182 197 210 221 243 333 321 335 327 326 328 331 331 330 330 327 328 329 332 335 338 339 337 336 330
77 170 133 192 251 266 289 276 102 69 61 80 94 108 80 100 112 130 139 136 134 159 157 179 196 209 248 240 318 308 313 337 332 331 337 337 336 335 334 334 336 339 338 339 345 347 346 345 344
93 358 151 111 258 304 310 4 76 90 87 35 116 89 129 134 135 141 146 144 137 150 175 190 199 228 225 224 311 308 329 340 336 336 339 339 337 338 337 338 341 345 347 352 354 354 357 341 339
129 35 138 201 57 309 347 9 74 87 89 90 90 157 154 161 151 151 154 158 162 170 199 206 224 249 218 253 307 308 340 338 335 338 341 341 340 339 339 340 345 351 355 0 353 359 6 356 352
119 67 274 339 52 302 348 20 49 60 109 71 47 102 128 156 159 163 167 174 180 190 211 247 285 272 226 296 306 320 340 337 337 340 341 342 342 342 341 343 350 357 6 3 12 12 7 3 358
128 125 99 320 320 317 335 46 351 33 57 54 59 88 128 147 159 175 181 190 197 230 214 260 272 223 271 298 314 338 332 337 339 341 342 343 344 344 346 349 356 5 8 9 23 16 9 3 2
128 128 204 7 358 344 349 25 37 1 42 26 8 123 136 140 153 185 203 217 225 235 199 149 217 135 270 314 331 334 331 334 340 343 343 344 346 347 350 356 6 10 13 27 33 26 11 2 2
123 162 13 346 344 357 0 5 60 53 345 11 106 146 143 156 171 190 212 228 232 240 210 182 27 24 339 321 331 331 331 336 340 342 345 346 347 350 356 6 11 17 33 43 37 16 9 9 8
43 340 317 345 346 348 66 59 94 41 49 89 122 136 132 146 164 215 230 232 238 230 223 213 227 356 335 330 333 332 331 337 340 343 345 346 351 357 4 9 9 30 45 43 31 17 12 8 4
127 12 334 309 338 331 83 42 133 23 39 74 96 89 92 95 78 221 238 219 228 219 217 213 229 282 334 336 329 328 332 337 342 343 346 352 359 6 8 2 18 36 47 30 26 15 8 5 0
143 111 347 301 325 322 175 38 24 3 55 62 70 74 74 67 69 60 68 193 202 212 205 204 214 259 339 332 321 326 333 341 343 346 352 0 7 8 1 359 19 31 40 28 16 13 10 4 1
91 75 143 251 291 239 349 158 11 28 72 54 62 66 67 62 61 64 69 100 156 172 175 187 190 216 321 321 320 325 335 343 346 353 2 13 12 3 3 12 24 24 32 20 12 3 5 9 6
320 139 184 209 187 332 146 139 16 43 75 63 58 65 71 75 73 75 82 102 120 139 154 172 172 206 311 321 317 329 345 353 360 6 14 20 15 9 17 17 21 15 22 16 6 5 2 4 11
184 154 207 179 99 50 53 103 69 48 70 67 70 68 66 71 68 78 89 101 115 129 143 154 160 217 312 309 314 337 355 1 7 11 18 25 20 19 25 24 12 13 11 4 358 5 10 6 11
164 126 148 266 280 108 97 125 54 70 74 61 60 68 65 73 75 83 88 98 106 123 134 125 64 327 305 289 304 337 355 12 14 23 31 31 28 26 35 29 17 11 11 4 1 0 5 8 11
192 207 195 327 98 99 156 263 52 59 75 84 65 75 83 91 80 77 82 88 91 90 88 74 58 64 116 75 23 23 24 34 38 39 41 36 29 37 37 25 18 11 5 6 2 360 2 11 10
151 185 186 178 129 72 133 222 198 111 119 125 117 102 91 84 82 78 69 71 78 82 81 88 92 87 76 57 45 44 47 58 57 52 48 43 35 36 33 28 24 17 7 6 5 3 1 1 8
188 189 210 187 66 261 175 263 219 169 168 167 140 120 113 118 96 96 91 70 70 71 76 83 89 88 85 76 53 65 60 54 51 48 46 43 37 28 25 22 17 15 13 9 5 359 1 0 360
227 161 162 165 206 320 205 32 230 132 221 191 173 157 141 121 127 107 87 79 62 77 86 78 79 78 74 71 68 66 64 57 50 49 28 31 22 15 3 4 5 6 8 6 3 360 1 360 356
147 82 49 56 102 270 205 165 241 193 203 157 167 173 164 151 145 126 106 103 86 94 101 97 87 81 73 70 71 69 67 58 53 47 34 23 12 10 3 6 3 360 356 355 356 356 355 352 351
94 71 79 319 330 225 198 181 254 174 179 168 166 173 170 165 157 170 157 158 195 162 134 119 98 80 64 51 58 62 62 56 52 44 34 24 22 21 15 8 3 4 2 358 351 349 352 355 351
163 157 160 199 200 221 193 231 242 103 104 136 159 161 157 164 175 181 178 180 168 152 138 126 114 90 76 64 54 48 44 42 36 31 26 22 19 21 10 3 360 356 353 350 350 353 344 1 1
185 188 148 59 116 54 219 280 203 127 123 138 147 158 158 163 165 168 162 155 144 136 129 118 107 97 90 78 74 70 66 63 58 53 49 47 41 35 24 12 3 357 357 358 355 352 351 353 352
162 144 103 121 186 231 255 272 235 202 187 172 166 163 167 165 164 158 150 142 133 125 118 113 107 104 96 92 87 80 74 69 66 64 59 54 51 47 42 38 34 29 27 23 15 9 3 357 356
143 170 175 160 175 191 263 254 39 223 186 173 173 173 174 168 166 158 148 139 134 125 121 115 110 104 99 92 84 80 74 67 62 57 55 50 45 42 37 35 32 28 26 23 19 17 12 8 6
179 180 178 168 222 231 165 270 342 269 170 167 163 172 174 170 163 157 147 146 139 134 128 122 112 107 98 91 86 80 76 69 61 55 50 45 40 38 35 32 29 29 26 23 19 18 16 10 6
Wind_Speed_850mb
13 4 17 6 7 9 3 6 4 1 3 8 11 7 15 9 3 7 32 20 17 16 21 24 18 11 12 7 6 7 8 9 11 14 16 19 22 26 29 31 32 33 35 38 41 44 47 49 51
24 4 14 4 8 5 8 5 5 2 7 7 9 8 10 6 8 19 26 15 16 15 21 25 20 16 13 10 8 9 8 10 13 17 19 23 26 28 31 33 35 37 39 41 44 46 49 52 52
38 11 8 6 5 7 6 7 3 0 3 3 7 13 7 6 13 12 13 14 20 20 18 25 20 18 15 13 12 6 7 10 15 19 23 26 29 30 33 35 38 41 42 43 45 46 47 48 46
16 8 3 5 4 7 6 5 4 2 5 6 15 10 10 8 12 6 18 19 18 20 26 24 23 17 16 15 15 7 8 11 15 20 24 27 29 30 33 37 40 43 43 42 40 37 36 34 32
17 8 4 2 6 8 8 4 3 3 3 7 5 6 7 9 8 15 20 19 14 22 25 25 21 19 15 10 6 6 7 9 16 21 24 28 32 35 38 42 43 44 42 36 30 29 29 29 31
9 7 4 6 6 7 10 2 2 4 3 5 11 9 6 13 17 23 21 19 15 15 21 24 22 19 12 4 2 5 7 11 18 23 28 32 35 39 42 43 44 41 36 29 29 27 28 28 27
7 2 6 6 4 6 5 6 5 4 4 8 10 8 10 16 19 22 23 18 14 11 5 14 19 17 6 3 3 7 9 14 20 25 29 33 39 41 42 42 40 36 32 29 30 27 31 31 27
7 2 6 1 1 3 11 5 5 7 4 7 5 8 9 20 22 23 22 17 16 14 11 4 13 13 6 2 5 9 10 15 21 26 30 34 39 40 40 38 36 33 29 28 30 28 30 34 33
13 7 3 2 4 9 14 8 7 6 7 10 10 7 10 26 23 23 22 18 17 13 10 6 4 6 4 3 7 8 10 16 22 28 32 35 38 38 36 35 34 28 25 28 30 31 31 32 33
9 7 2 4 2 6 12 6 9 4 10 15 18 18 25 22 19 16 15 12 9 6 6 1 2 1 2 2 6 8 13 18 24 29 33 37 38 37 35 32 28 24 24 27 25 29 33 34 37
7 8 5 14 18 18 12 11 16 8 11 19 6 22 23 20 18 16 13 11 6 7 5 1 1 1 1 4 7 10 15 20 25 30 33 36 38 36 31 26 22 22 21 20 24 29 35 42 43
6 5 5 8 17 22 11 11 19 30 18 13 14 25 21 19 16 16 17 15 12 11 7 3 2 5 4 7 8 12 16 22 27 31 35 36 36 32 26 24 22 22 19 20 25 31 38 40 44
4 5 7 20 22 30 26 38 20 40 23 20 20 23 21 12 7 8 14 17 17 15 11 6 1 2 4 9 11 13 17 22 27 32 35 36 32 27 25 23 22 18 18 20 25 30 36 41 41
11 6 19 17 35 23 10 17 8 23 17 25 24 28 22 12 6 1 7 16 17 17 18 13 7 3 6 10 13 14 17 22 27 31 34 33 28 24 23 24 19 19 19 23 24 32 39 45 47
13 9 10 22 29 11 2 14 11 20 12 26 32 29 26 22 14 10 5 9 15 18 21 18 11 4 8 12 13 14 17 21 25 29 29 27 24 24 24 24 21 19 20 20 21 24 31 41 46
12 10 9 11 15 7 4 3 15 16 12 26 29 32 30 32 27 19 14 10 12 19 25 20 13 4 6 10 12 12 14 19 24 26 25 22 22 26 27 24 18 20 18 21 26 31 32 38 43
7 7 11 9 2 1 5 6 10 16 18 25 28 31 32 35 33 32 27 25 27 26 22 20 12 4 5 8 9 10 14 18 21 22 20 20 22 27 27 27 25 25 21 22 29 33 37 42 39
10 10 10 7 2 16 10 8 11 19 21 21 24 28 32 36 38 34 30 29 27 25 22 15 9 1 6 7 8 10 13 17 20 21 19 19 21 25 25 26 27 28 27 25 29 32 33 41 45
13 3 18 10 7 10 6 7 6 11 19 19 18 24 27 34 29 28 25 23 21 17 12 7 2 3 4 4 5 7 12 17 18 19 19 20 22 24 22 23 27 30 31 34 39 38 37 44 48
9 17 12 8 10 8 10 3 4 8 8 10 12 16 19 20 21 22 18 17 12 10 8 6 4 3 1 2 4 8 13 17 20 21 18 19 23 29 25 26 28 30 33 34 36 42 46 42 52
8 12 9 9 4 6 13 7 11 3 12 12 11 14 16 19 16 16 15 16 11 10 11 9 8 6 6 7 8 8 9 10 12 21 21 21 24 26 27 29 31 31 33 36 37 38 41 43 43
7 18 16 19 1 7 4 7 7 11 11 11 10 12 14 15 16 14 11 11 13 14 13 10 9 6 6 6 4 8 14 22 24 22 19 20 21 22 23 24 27 29 31 34 38 36 37 36 38
11 8 16 20 22 4 4 3 3 10 12 13 17 15 14 14 11 12 14 12 8 8 8 9 8 6 8 12 16 17 22 20 17 14 13 14 16 20 21 22 24 25 28 30 34 35 35 36 36
14 9 16 8 7 6 13 12 9 13 12 14 21 22 18 15 11 8 9 6 1 4 6 7 6 6 10 15 18 20 20 20 18 18 16 17 19 21 22 24 27 28 28 30 32 33 32 33 33
9 10 3 3 2 9 3 8 13 10 8 21 32 31 22 17 12 9 7 5 6 5 6 6 6 7 12 12 14 16 18 17 19 19 20 19 22 23 25 27 28 31 32 31 30 32 33 32 34
10 12 9 11 7 8 4 12 8 5 16 30 38 32 23 18 15 11 9 9 8 7 7 7 7 8 10 11 13 14 15 15 16 16 18 20 20 22 24 26 28 28 30 30 32 32 31 33 32
10 9 7 5 3 3 9 4 2 9 11 24 31 31 28 24 19 16 13 12 12 11 11 11 12 14 14 17 19 19 22 23 26 27 27 28 28 27 25 23 24 25 26 29 30 33 34 36 38
14 17 7 3 6 8 8 8 10 24 27 23 27 33 33 28 24 21 18 16 16 18 19 20 23 25 28 28 29 30 32 32 31 29 31 32 32 32 31 32 33 35 35 35 34 35 35 37 39
7 9 7 11 9 9 4 11 3 9 32 33 35 42 41 35 29 26 24 23 23 25 27 30 31 31 30 29 29 27 28 27 26 27 29 31 30 32 33 34 35 37 39 41 41 42 43 45 45
4 14 15 9 9 8 4 11 7 12 35 44 42 46 41 36 33 30 29 29 31 31 31 30 29 27 28 28 25 26 25 25 24 26 28 29 31 33 35 36 38 40 42 44 47 49 50 52 53
Wind_Direction_850mb
215 242 335 2 55 64 272 254 283 206 52 14 99 136 125 66 81 166 147 129 139 169 169 170 158 154 134 157 191 253 296 331 329 329 329 326 322 320 318 316 312 309 307 305 302 298 295 293 292
187 139 339 2 88 71 269 257 222 219 122 107 63 86 60 75 54 125 147 148 137 163 168 155 152 161 165 185 217 257 294 328 333 331 329 328 325 324 323 321 318 315 311 307 302 298 298 298 297
179 123 336 85 104 168 209 243 199 234 69 187 101 69 75 69 95 116 141 151 145 158 159 147 159 177 177 203 231 5 343 336 334 330 328 328 326 327 325 321 319 315 311 308 306 306 304 301 301
130 92 38 79 214 251 212 303 220 89 98 86 113 57 78 86 122 95 138 136 147 155 149 155 177 181 194 213 259 337 338 339 331 327 328 327 325 326 323 322 321 319 318 317 316 313 315 316 323
132 97 307 51 277 271 266 273 225 87 63 80 104 138 73 68 112 125 135 134 139 155 154 167 182 197 210 221 243 333 321 335 327 326 328 331 331 330 330 327 328 329 332 335 338 339 337 336 330
77 170 133 192 251 266 289 276 102 69 61 80 94 108 80 100 112 130 139 136 134 159 157 179 196 209 248 240 318 308 313 337 332 331 337 337 336 335 334 334 336 339 338 339 345 347 346 345 344
93 358 151 111 258 304 310 4 76 90 87 35 116 89 129 134 135 141 146 144 137 150 175 190 199 228 225 224 311 308 329 340 336 336 339 339 337 338 337 338 341 345 347 352 354 354 357 341 339
129 35 138 201 57 309 347 9 74 87 89 90 90 157 154 161 151 151 154 158 162 170 199 206 224 249 218 253 307 308 340 338 335 338 341 341 340 339 339 340 345 351 355 0 353 359 6 356 352
119 67 274 339 52 302 348 20 49 60 109 71 47 102 128 156 159 163 167 174 180 190 211 247 285 272 226 296 306 320 340 337 337 340 341 342 342 342 341 343 350 357 6 3 12 12 7 3 358
128 125 99 320 320 317 335 46 351 33 57 54 59 88 128 147 159 175 181 190 197 230 214 260 272 223 271 298 314 338 332 337 339 341 342 343 344 344 346 349 356 5 8 9 23 16 9 3 2
128 128 204 7 358 344 349 25 37 1 42 26 8 123 136 140 153 185 203 217 225 235 199 149 217 135 270 314 331 334 331 334 340 343 343 344 346 347 350 356 6 10 13 27 33 26 11 2 2
123 162 13 346 344 357 0 5 60 53 345 11 106 146 143 156 171 190 212 228 232 240 210 182 27 24 339 321 331 331 331 336 340 342 345 346 347 350 356 6 11 17 33 43 37 16 9 9 8
43 340 317 345 346 348 66 59 94 41 49 89 122 136 132 146 164 215 230 232 238 230 223 213 227 356 335 330 333 332 331 337 340 343 345 346 351 357 4 9 9 30 45 43 31 17 12 8 4
127 12 334 309 338 331 83 42 133 23 39 74 96 89 92 95 78 221 238 219 228 219 217 213 229 282 334 336 329 328 332 337 342 343 346 352 359 6 8 2 18 36 47 30 26 15 8 5 0
143 111 347 301 325 322 175 38 24 3 55 62 70 74 74 67 69 60 68 193 202 212 205 204 214 259 339 332 321 326 333 341 343 346 352 0 7 8 1 359 19 31 40 28 16 13 10 4 1
91 75 143 251 291 239 349 158 11 28 72 54 62 66 67 62 61 64 69 100 156 172 175 187 190 216 321 321 320 325 335 343 346 353 2 13 12 3 3 12 24 24 32 20 12 3 5 9 6
320 139 184 209 187 332 146 139 16 43 75 63 58 65 71 75 73 75 82 102 120 139 154 172 172 206 311 321 317 329 345 353 360 6 14 20 15 9 17 17 21 15 22 16 6 5 2 4 11
184 154 207 179 99 50 53 103 69 48 70 67 70 68 66 71 68 78 89 101 115 129 143 154 160 217 312 309 314 337 355 1 7 11 18 25 20 19 25 24 12 13 11 4 358 5 10 6 11
164 126 148 266 280 108 97 125 54 70 74 61 60 68 65 73 75 83 88 98 106 123 134 125 64 327 305 289 304 337 355 12 14 23 31 31 28 26 35 29 17 11 11 4 1 0 5 8 11
192 207 195 327 98 99 156 263 52 59 75 84 65 75 83 91 80 77 82 88 91 90 88 74 58 64 116 75 23 23 24 34 38 39 41 36 29 37 37 25 18 11 5 6 2 360 2 11 10
151 185 186 178 129 72 133 222 198 111 119 125 117 102 91 84 82 78 69 71 78 82 81 88 92 87 76 57 45 44 47 58 57 52 48 43 35 36 33 28 24 17 7 6 5 3 1 1 8
188 189 210 187 66 261 175 263 219 169 168 167 140 120 113 118 96 96 91 70 70 71 76 83 89 88 85 76 53 65 60 54 51 48 46 43 37 28 25 22 17 15 13 9 5 359 1 0 360
227 161 162 165 206 320 205 32 230 132 221 191 173 157 141 121 127 107 87 79 62 77 86 78 79 78 74 71 68 66 64 57 50 49 28 31 22 15 3 4 5 6 8 6 3 360 1 360 356
147 82 49 56 102 270 205 165 241 193 203 157 167 173 164 151 145 126 106 103 86 94 101 97 87 81 73 70 71 69 67 58 53 47 34 23 12 10 3 6 3 360 356 355 356 356 355 352 351
94 71 79 319 330 225 198 181 254 174 179 168 166 173 170 165 157 170 157 158 195 162 134 119 98 80 64 51 58 62 62 56 52 44 34 24 22 21 15 8 3 4 2 358 351 349 352 355 351
163 157 160 199 200 221 193 231 242 103 104 136 159 161 157 164 175 181 178 180 168 152 138 126 114 90 76 64 54 48 44 42 36 31 26 22 19 21 10 3 360 356 353 350 350 353 344 1 1
185 188 148 59 116 54 219 280 203 127 123 138 147 158 158 163 165 168 162 155 144 136 129 118 107 97 90 78 74 70 66 63 58 53 49 47 41 35 24 12 3 357 357 358 355 352 351 353 352
162 144 103 121 186 231 255 272 235 202 187 172 166 163 167 165 164 158 150 142 133 125 118 113 107 104 96 92 87 80 74 69 66 64 59 54 51 47 42 38 34 29 27 23 15 9 3 357 356
143 170 175 160 175 191 263 254 39 223 186 173 173 173 174 168 166 158 148 139 134 125 121 115 110 104 99 92 84 80 74 67 62 57 55 50 45 42 37 35 32 28 26 23 19 17 12 8 6
179 180 178 168 222 231 165 270 342 269 170 167 163 172 174 170 163 157 147 146 139 134 128 122 112 107 98 91 86 80 76 69 61 55 50 45 40 38 35 32 29 29 26 23 19 18 16 10 6